Wetterdaten: Montag, 07.11.2011
Datum Zeit Temp. A. Feuchte A. Luftdruck Regen Wind Richtung Richtung Sonnenschein UV Solar Windben
07.11.2011 00:00 7,2 C 91 % 1017,7 hPa 0,0 mm 1,6 km/h (1 Bft) N-NO 22 0 min 0 UV-I 0 W/m 8,0 km/h (2 Bft)
07.11.2011 00:10 7,2 C 91 % 1017,8 hPa 0,0 mm 0,0 km/h (0 Bft) N-NO 22 0 min 0 UV-I 0 W/m 6,4 km/h (2 Bft)
07.11.2011 00:20 7,2 C 91 % 1018,1 hPa 0,0 mm 1,6 km/h (1 Bft) N-NO 22 0 min 0 UV-I 0 W/m 6,4 km/h (2 Bft)
07.11.2011 00:30 7,2 C 91 % 1018,1 hPa 0,0 mm 0,0 km/h (0 Bft) N-NO 22 0 min 0 UV-I 0 W/m 4,8 km/h (1 Bft)
07.11.2011 00:40 7,3 C 91 % 1017,9 hPa 0,0 mm 1,6 km/h (1 Bft) N-NO 22 0 min 0 UV-I 0 W/m 4,8 km/h (1 Bft)
07.11.2011 00:50 7,3 C 91 % 1017,8 hPa 0,0 mm 0,0 km/h (0 Bft) N-NO 22 0 min 0 UV-I 0 W/m 6,4 km/h (2 Bft)
07.11.2011 01:00 7,3 C 91 % 1017,8 hPa 0,0 mm 1,6 km/h (1 Bft) N-NO 22 0 min 0 UV-I 0 W/m 6,4 km/h (2 Bft)
07.11.2011 01:10 7,3 C 91 % 1017,9 hPa 0,0 mm 1,6 km/h (1 Bft) N-NO 22 0 min 0 UV-I 0 W/m 8,0 km/h (2 Bft)
07.11.2011 01:20 7,3 C 91 % 1018,0 hPa 0,0 mm 1,6 km/h (1 Bft) N-NO 22 0 min 0 UV-I 0 W/m 6,4 km/h (2 Bft)
07.11.2011 01:30 7,3 C 91 % 1018,0 hPa 0,0 mm 1,6 km/h (1 Bft) N-NO 22 0 min 0 UV-I 0 W/m 8,0 km/h (2 Bft)
07.11.2011 01:40 7,3 C 92 % 1018,0 hPa 0,0 mm 1,6 km/h (1 Bft) N-NO 22 0 min 0 UV-I 0 W/m 6,4 km/h (2 Bft)
07.11.2011 01:50 7,4 C 92 % 1017,9 hPa 0,0 mm 0,0 km/h (0 Bft) N-NO 22 0 min 0 UV-I 0 W/m 1,6 km/h (1 Bft)
07.11.2011 02:00 7,4 C 92 % 1018,0 hPa 0,0 mm 1,6 km/h (1 Bft) N-NO 22 0 min 0 UV-I 0 W/m 8,0 km/h (2 Bft)
07.11.2011 02:10 7,4 C 92 % 1018,0 hPa 0,0 mm 1,6 km/h (1 Bft) N-NO 22 0 min 0 UV-I 0 W/m 8,0 km/h (2 Bft)
07.11.2011 02:20 7,4 C 92 % 1018,0 hPa 0,0 mm 1,6 km/h (1 Bft) N-NO 22 0 min 0 UV-I 0 W/m 11,3 km/h (2 Bft)
07.11.2011 02:30 7,4 C 92 % 1018,1 hPa 0,0 mm 3,2 km/h (1 Bft) N-NO 22 0 min 0 UV-I 0 W/m 9,7 km/h (2 Bft)
07.11.2011 02:40 7,4 C 92 % 1018,1 hPa 0,0 mm 1,6 km/h (1 Bft) N-NO 22 0 min 0 UV-I 0 W/m 8,0 km/h (2 Bft)
07.11.2011 02:50 7,4 C 92 % 1018,1 hPa 0,0 mm 1,6 km/h (1 Bft) N-NO 22 0 min 0 UV-I 0 W/m 11,3 km/h (2 Bft)
07.11.2011 03:00 7,3 C 92 % 1017,8 hPa 0,0 mm 1,6 km/h (1 Bft) N-NO 22 0 min 0 UV-I 0 W/m 9,7 km/h (2 Bft)
07.11.2011 03:10 7,3 C 92 % 1017,7 hPa 0,0 mm 1,6 km/h (1 Bft) N-NO 22 0 min 0 UV-I 0 W/m 9,7 km/h (2 Bft)
07.11.2011 03:20 7,3 C 92 % 1017,7 hPa 0,0 mm 1,6 km/h (1 Bft) N-NO 22 0 min 0 UV-I 0 W/m 8,0 km/h (2 Bft)
07.11.2011 03:30 7,2 C 92 % 1017,8 hPa 0,0 mm 1,6 km/h (1 Bft) N-NO 22 0 min 0 UV-I 0 W/m 8,0 km/h (2 Bft)
07.11.2011 03:40 7,2 C 92 % 1017,8 hPa 0,0 mm 1,6 km/h (1 Bft) N-NO 22 0 min 0 UV-I 0 W/m 8,0 km/h (2 Bft)
07.11.2011 03:50 7,2 C 92 % 1017,7 hPa 0,0 mm 1,6 km/h (1 Bft) N-NO 22 0 min 0 UV-I 0 W/m 8,0 km/h (2 Bft)
07.11.2011 04:00 7,2 C 92 % 1017,8 hPa 0,0 mm 0,0 km/h (0 Bft) N-NO 22 0 min 0 UV-I 0 W/m 4,8 km/h (1 Bft)
07.11.2011 04:10 7,2 C 92 % 1018,0 hPa 0,0 mm 1,6 km/h (1 Bft) N-NO 22 0 min 0 UV-I 0 W/m 6,4 km/h (2 Bft)
07.11.2011 04:20 7,2 C 92 % 1018,0 hPa 0,0 mm 0,0 km/h (0 Bft) N-NO 22 0 min 0 UV-I 0 W/m 4,8 km/h (1 Bft)
07.11.2011 04:30 7,2 C 92 % 1017,9 hPa 0,0 mm 1,6 km/h (1 Bft) N-NO 22 0 min 0 UV-I 0 W/m 6,4 km/h (2 Bft)
07.11.2011 04:40 7,2 C 92 % 1017,9 hPa 0,0 mm 1,6 km/h (1 Bft) N-NO 22 0 min 0 UV-I 0 W/m 6,4 km/h (2 Bft)
07.11.2011 04:50 7,2 C 92 % 1017,9 hPa 0,0 mm 1,6 km/h (1 Bft) N-NO 22 0 min 0 UV-I 0 W/m 6,4 km/h (2 Bft)
07.11.2011 05:00 7,2 C 93 % 1018,0 hPa 0,0 mm 1,6 km/h (1 Bft) N-NO 22 0 min 0 UV-I 0 W/m 6,4 km/h (2 Bft)
07.11.2011 05:10 7,2 C 93 % 1018,2 hPa 0,0 mm 1,6 km/h (1 Bft) N-NO 22 0 min 0 UV-I 0 W/m 8,0 km/h (2 Bft)
07.11.2011 05:20 7,2 C 93 % 1018,0 hPa 0,0 mm 3,2 km/h (1 Bft) N-NO 22 0 min 0 UV-I 0 W/m 9,7 km/h (2 Bft)
07.11.2011 05:30 7,2 C 93 % 1018,2 hPa 0,0 mm 1,6 km/h (1 Bft) N-NO 22 0 min 0 UV-I 0 W/m 11,3 km/h (2 Bft)
07.11.2011 05:40 7,2 C 93 % 1018,2 hPa 0,0 mm 0,0 km/h (0 Bft) N-NO 22 0 min 0 UV-I 0 W/m 4,8 km/h (1 Bft)
07.11.2011 05:50 7,2 C 93 % 1018,4 hPa 0,0 mm 1,6 km/h (1 Bft) N-NO 22 0 min 0 UV-I 0 W/m 6,4 km/h (2 Bft)
07.11.2011 06:00 7,2 C 93 % 1018,5 hPa 0,0 mm 1,6 km/h (1 Bft) N-NO 22 0 min 0 UV-I 0 W/m 6,4 km/h (2 Bft)
07.11.2011 06:10 7,2 C 93 % 1018,5 hPa 0,0 mm 1,6 km/h (1 Bft) N-NO 22 0 min 0 UV-I 0 W/m 8,0 km/h (2 Bft)
07.11.2011 06:20 7,2 C 93 % 1018,3 hPa 0,0 mm 3,2 km/h (1 Bft) N-NO 22 0 min 0 UV-I 0 W/m 11,3 km/h (2 Bft)
07.11.2011 06:30 7,1 C 93 % 1018,2 hPa 0,0 mm 3,2 km/h (1 Bft) N-NO 22 0 min 0 UV-I 0 W/m 9,7 km/h (2 Bft)
07.11.2011 06:40 7,1 C 93 % 1018,3 hPa 0,0 mm 1,6 km/h (1 Bft) N-NO 22 0 min 0 UV-I 0 W/m 6,4 km/h (2 Bft)
07.11.2011 06:50 7,1 C 93 % 1018,3 hPa 0,0 mm 1,6 km/h (1 Bft) N-NO 22 0 min 0 UV-I 0 W/m 8,0 km/h (2 Bft)
07.11.2011 07:00 7,2 C 92 % 1018,3 hPa 0,0 mm 1,6 km/h (1 Bft) N-NO 22 0 min 0 UV-I 0 W/m 8,0 km/h (2 Bft)
07.11.2011 07:10 7,2 C 92 % 1018,3 hPa 0,0 mm 1,6 km/h (1 Bft) N-NO 22 0 min 0 UV-I 0 W/m 4,8 km/h (1 Bft)
07.11.2011 07:20 7,2 C 92 % 1018,3 hPa 0,0 mm 0,0 km/h (0 Bft) N-NO 22 0 min 0 UV-I 0 W/m 4,8 km/h (1 Bft)
07.11.2011 07:30 7,2 C 92 % 1018,3 hPa 0,0 mm 1,6 km/h (1 Bft) N-NO 22 0 min 0 UV-I 0 W/m 6,4 km/h (2 Bft)
07.11.2011 07:40 7,2 C 92 % 1018,5 hPa 0,0 mm 0,0 km/h (0 Bft) N-NO 22 0 min 0 UV-I 0 W/m 6,4 km/h (2 Bft)
07.11.2011 07:50 7,3 C 92 % 1018,5 hPa 0,0 mm 1,6 km/h (1 Bft) N-NO 22 0 min 0 UV-I 9 W/m 8,0 km/h (2 Bft)
07.11.2011 08:00 7,3 C 92 % 1018,6 hPa 0,0 mm 1,6 km/h (1 Bft) N-NO 22 0 min 0 UV-I 14 W/m 8,0 km/h (2 Bft)
07.11.2011 08:10 7,4 C 92 % 1018,6 hPa 0,0 mm 1,3 km/h (1 Bft) N-NO 30 0 min 0 UV-I 19 W/m 6,4 km/h (2 Bft)
07.11.2011 08:20 7,4 C 92 % 1018,5 hPa 0,0 mm 3,2 km/h (1 Bft) N-NO 22 0 min 0 UV-I 32 W/m 8,0 km/h (2 Bft)
07.11.2011 08:30 7,6 C 92 % 1018,4 hPa 0,0 mm 4,8 km/h (1 Bft) NO 45 0 min 0 UV-I 42 W/m 14,5 km/h (3 Bft)
07.11.2011 08:40 7,6 C 91 % 1018,6 hPa 0,0 mm 3,2 km/h (1 Bft) NO 45 0 min 0 UV-I 44 W/m 14,5 km/h (3 Bft)
07.11.2011 08:50 7,7 C 91 % 1018,7 hPa 0,0 mm 1,6 km/h (1 Bft) NO 45 0 min 0 UV-I 32 W/m 6,4 km/h (2 Bft)
07.11.2011 09:00 7,8 C 91 % 1018,7 hPa 0,0 mm 3,2 km/h (1 Bft) NO 45 0 min 0 UV-I 21 W/m 8,0 km/h (2 Bft)
07.11.2011 09:10 7,8 C 90 % 1018,6 hPa 0,0 mm 1,6 km/h (1 Bft) NO 45 0 min 0 UV-I 21 W/m 8,0 km/h (2 Bft)
07.11.2011 09:20 7,8 C 90 % 1018,7 hPa 0,0 mm 3,2 km/h (1 Bft) NO 45 0 min 0 UV-I 30 W/m 11,3 km/h (2 Bft)
07.11.2011 09:30 7,8 C 90 % 1018,6 hPa 0,0 mm 3,2 km/h (1 Bft) NO 45 0 min 0 UV-I 35 W/m 8,0 km/h (2 Bft)
07.11.2011 09:40 7,9 C 90 % 1018,6 hPa 0,0 mm 1,6 km/h (1 Bft) NO 45 0 min 0 UV-I 42 W/m 8,0 km/h (2 Bft)
07.11.2011 09:50 8,0 C 89 % 1018,5 hPa 0,0 mm 1,6 km/h (1 Bft) NO 45 0 min 0 UV-I 40 W/m 6,4 km/h (2 Bft)
07.11.2011 10:00 8,1 C 89 % 1018,8 hPa 0,0 mm 1,6 km/h (1 Bft) NO 45 0 min 0 UV-I 46 W/m 8,0 km/h (2 Bft)
07.11.2011 10:10 8,1 C 89 % 1018,8 hPa 0,0 mm 1,6 km/h (1 Bft) NO 45 0 min 0 UV-I 46 W/m 9,7 km/h (2 Bft)
07.11.2011 10:20 8,1 C 89 % 1018,9 hPa 0,0 mm 3,2 km/h (1 Bft) NO 45 0 min 0 UV-I 46 W/m 9,7 km/h (2 Bft)
07.11.2011 10:30 8,1 C 89 % 1018,9 hPa 0,0 mm 3,2 km/h (1 Bft) NO 45 0 min 0 UV-I 47 W/m 11,3 km/h (2 Bft)
07.11.2011 10:40 8,1 C 89 % 1019,0 hPa 0,0 mm 3,2 km/h (1 Bft) O-NO 67 0 min 0 UV-I 46 W/m 9,7 km/h (2 Bft)
07.11.2011 10:50 8,2 C 88 % 1019,1 hPa 0,0 mm 3,2 km/h (1 Bft) O-NO 67 0 min 0 UV-I 42 W/m 8,0 km/h (2 Bft)
07.11.2011 11:00 8,2 C 88 % 1019,1 hPa 0,0 mm 0,0 km/h (0 Bft) O-NO 67 0 min 0 UV-I 37 W/m 4,8 km/h (1 Bft)
07.11.2011 11:10 8,2 C 88 % 1019,1 hPa 0,0 mm 1,6 km/h (1 Bft) O-NO 67 0 min 0 UV-I 46 W/m 8,0 km/h (2 Bft)
07.11.2011 11:20 8,3 C 88 % 1019,2 hPa 0,0 mm 1,6 km/h (1 Bft) O-NO 67 0 min 0 UV-I 47 W/m 8,0 km/h (2 Bft)
07.11.2011 11:30 8,2 C 88 % 1019,1 hPa 0,0 mm 1,6 km/h (1 Bft) O-NO 67 0 min 0 UV-I 46 W/m 6,4 km/h (2 Bft)
07.11.2011 11:40 8,3 C 88 % 1019,1 hPa 0,0 mm 1,6 km/h (1 Bft) O-NO 67 0 min 0 UV-I 53 W/m 8,0 km/h (2 Bft)
07.11.2011 11:50 8,3 C 88 % 1019,2 hPa 0,0 mm 3,2 km/h (1 Bft) O-NO 67 0 min 0 UV-I 51 W/m 9,7 km/h (2 Bft)
07.11.2011 12:00 8,3 C 88 % 1019,1 hPa 0,0 mm 1,6 km/h (1 Bft) O-NO 67 0 min 1 UV-I 56 W/m 11,3 km/h (2 Bft)
07.11.2011 12:10 8,4 C 88 % 1019,0 hPa 0,0 mm 1,6 km/h (1 Bft) O-NO 67 0 min 1 UV-I 60 W/m 9,7 km/h (2 Bft)
07.11.2011 12:20 8,5 C 87 % 1019,0 hPa 0,0 mm 1,6 km/h (1 Bft) NO 45 0 min 0 UV-I 54 W/m 9,7 km/h (2 Bft)
07.11.2011 12:30 8,6 C 87 % 1018,9 hPa 0,0 mm 3,2 km/h (1 Bft) NO 45 0 min 0 UV-I 54 W/m 9,7 km/h (2 Bft)
07.11.2011 12:40 8,6 C 87 % 1018,7 hPa 0,0 mm 1,6 km/h (1 Bft) NO 45 0 min 1 UV-I 72 W/m 9,7 km/h (2 Bft)
07.11.2011 12:50 8,7 C 87 % 1018,7 hPa 0,0 mm 1,6 km/h (1 Bft) NO 45 0 min 1 UV-I 72 W/m 9,7 km/h (2 Bft)
07.11.2011 13:00 8,7 C 86 % 1018,6 hPa 0,0 mm 3,2 km/h (1 Bft) NO 45 0 min 1 UV-I 65 W/m 17,7 km/h (3 Bft)
07.11.2011 13:10 8,8 C 86 % 1018,4 hPa 0,0 mm 3,2 km/h (1 Bft) N-NO 22 0 min 1 UV-I 65 W/m 8,0 km/h (2 Bft)
07.11.2011 13:20 8,8 C 86 % 1018,4 hPa 0,0 mm 3,2 km/h (1 Bft) N-NO 22 0 min 1 UV-I 69 W/m 9,7 km/h (2 Bft)
07.11.2011 13:30 8,9 C 86 % 1018,3 hPa 0,0 mm 1,6 km/h (1 Bft) NO 45 0 min 1 UV-I 70 W/m 9,7 km/h (2 Bft)
07.11.2011 13:40 9,0 C 86 % 1018,3 hPa 0,0 mm 1,6 km/h (1 Bft) NO 45 0 min 1 UV-I 62 W/m 8,0 km/h (2 Bft)
07.11.2011 13:50 9,1 C 86 % 1018,2 hPa 0,0 mm 3,2 km/h (1 Bft) NO 45 0 min 0 UV-I 58 W/m 12,9 km/h (3 Bft)
07.11.2011 14:00 9,1 C 86 % 1018,3 hPa 0,0 mm 3,2 km/h (1 Bft) O-NO 67 0 min 0 UV-I 54 W/m 8,0 km/h (2 Bft)
07.11.2011 14:10 9,1 C 86 % 1018,2 hPa 0,0 mm 1,6 km/h (1 Bft) O-NO 67 0 min 0 UV-I 49 W/m 9,7 km/h (2 Bft)
07.11.2011 14:20 9,2 C 86 % 1018,0 hPa 0,0 mm 1,6 km/h (1 Bft) O-NO 67 0 min 0 UV-I 53 W/m 6,4 km/h (2 Bft)
07.11.2011 14:30 9,2 C 86 % 1018,0 hPa 0,0 mm 3,2 km/h (1 Bft) O-NO 67 0 min 0 UV-I 46 W/m 9,7 km/h (2 Bft)
07.11.2011 14:40 9,2 C 86 % 1017,8 hPa 0,0 mm 1,6 km/h (1 Bft) O-NO 67 0 min 0 UV-I 53 W/m 9,7 km/h (2 Bft)
07.11.2011 14:50 9,2 C 86 % 1017,7 hPa 0,0 mm 3,2 km/h (1 Bft) O-NO 67 0 min 0 UV-I 51 W/m 8,0 km/h (2 Bft)
07.11.2011 15:00 9,2 C 86 % 1017,7 hPa 0,0 mm 3,2 km/h (1 Bft) O-NO 67 0 min 0 UV-I 67 W/m 8,0 km/h (2 Bft)
07.11.2011 15:10 9,2 C 85 % 1017,7 hPa 0,0 mm 3,2 km/h (1 Bft) O-NO 67 0 min 0 UV-I 47 W/m 9,7 km/h (2 Bft)
07.11.2011 15:20 9,2 C 86 % 1018,0 hPa 0,0 mm 1,6 km/h (1 Bft) O-NO 67 0 min 0 UV-I 46 W/m 8,0 km/h (2 Bft)
07.11.2011 15:30 9,2 C 86 % 1018,2 hPa 0,0 mm 3,2 km/h (1 Bft) O-NO 67 0 min 0 UV-I 35 W/m 8,0 km/h (2 Bft)
07.11.2011 15:40 9,1 C 86 % 1018,1 hPa 0,0 mm 1,6 km/h (1 Bft) O-NO 67 0 min 0 UV-I 21 W/m 6,4 km/h (2 Bft)
07.11.2011 15:50 9,1 C 86 % 1017,9 hPa 0,0 mm 1,6 km/h (1 Bft) O-NO 67 0 min 0 UV-I 14 W/m 9,7 km/h (2 Bft)
07.11.2011 16:00 9,0 C 86 % 1017,9 hPa 0,0 mm 3,2 km/h (1 Bft) O-NO 67 0 min 0 UV-I 12 W/m 11,3 km/h (2 Bft)
07.11.2011 16:10 8,9 C 86 % 1017,9 hPa 0,0 mm 3,2 km/h (1 Bft) O-NO 67 0 min 0 UV-I 12 W/m 8,0 km/h (2 Bft)
07.11.2011 16:20 8,8 C 86 % 1017,9 hPa 0,0 mm 1,6 km/h (1 Bft) O-NO 67 0 min 0 UV-I 9 W/m 11,3 km/h (2 Bft)
07.11.2011 16:30 8,7 C 87 % 1018,0 hPa 0,0 mm 1,6 km/h (1 Bft) O-NO 67 0 min 0 UV-I 0 W/m 8,0 km/h (2 Bft)
07.11.2011 16:40 8,6 C 87 % 1018,1 hPa 0,0 mm 0,0 km/h (0 Bft) O-NO 67 0 min 0 UV-I 0 W/m 4,8 km/h (1 Bft)
07.11.2011 16:50 8,6 C 87 % 1018,1 hPa 0,0 mm 3,2 km/h (1 Bft) O-NO 67 0 min 0 UV-I 0 W/m 9,7 km/h (2 Bft)
07.11.2011 17:00 8,5 C 88 % 1018,2 hPa 0,0 mm 3,2 km/h (1 Bft) O-NO 67 0 min 0 UV-I 0 W/m 11,3 km/h (2 Bft)
07.11.2011 17:10 8,4 C 88 % 1018,1 hPa 0,0 mm 4,8 km/h (1 Bft) O 90 0 min 0 UV-I 0 W/m 11,3 km/h (2 Bft)
07.11.2011 17:20 8,4 C 87 % 1018,2 hPa 0,0 mm 4,8 km/h (1 Bft) O 90 0 min 0 UV-I 0 W/m 16,1 km/h (3 Bft)
07.11.2011 17:30 8,4 C 87 % 1018,2 hPa 0,0 mm 3,2 km/h (1 Bft) O 90 0 min 0 UV-I 0 W/m 11,3 km/h (2 Bft)
07.11.2011 17:40 8,4 C 87 % 1018,2 hPa 0,0 mm 3,2 km/h (1 Bft) O 90 0 min 0 UV-I 0 W/m 11,3 km/h (2 Bft)
07.11.2011 17:50 8,4 C 88 % 1018,1 hPa 0,0 mm 1,6 km/h (1 Bft) O 90 0 min 0 UV-I 0 W/m 9,7 km/h (2 Bft)
07.11.2011 18:00 8,3 C 88 % 1018,3 hPa 0,0 mm 1,6 km/h (1 Bft) O 90 0 min 0 UV-I 0 W/m 6,4 km/h (2 Bft)
07.11.2011 18:10 8,3 C 88 % 1017,9 hPa 0,0 mm 0,0 km/h (0 Bft) O 90 0 min 0 UV-I 0 W/m 4,8 km/h (1 Bft)
07.11.2011 18:20 8,2 C 87 % 1018,0 hPa 0,0 mm 0,0 km/h (0 Bft) O 90 0 min 0 UV-I 0 W/m 1,6 km/h (1 Bft)
07.11.2011 18:30 7,8 C 88 % 1018,0 hPa 0,0 mm 0,0 km/h (0 Bft) O 90 0 min 0 UV-I 0 W/m 3,2 km/h (1 Bft)
07.11.2011 18:40 7,6 C 88 % 1018,2 hPa 0,0 mm 0,0 km/h (0 Bft) O 90 0 min 0 UV-I 0 W/m 1,6 km/h (1 Bft)
07.11.2011 18:50 7,3 C 89 % 1018,2 hPa 0,0 mm 0,0 km/h (0 Bft) O 90 0 min 0 UV-I 0 W/m 3,2 km/h (1 Bft)
07.11.2011 19:00 7,2 C 89 % 1018,2 hPa 0,0 mm 0,0 km/h (0 Bft) O 90 0 min 0 UV-I 0 W/m 3,2 km/h (1 Bft)
07.11.2011 19:10 7,2 C 89 % 1018,2 hPa 0,0 mm 0,0 km/h (0 Bft) O 90 0 min 0 UV-I 0 W/m 1,6 km/h (1 Bft)
07.11.2011 19:20 6,9 C 90 % 1018,2 hPa 0,0 mm 0,0 km/h (0 Bft) O 90 0 min 0 UV-I 0 W/m 3,2 km/h (1 Bft)
07.11.2011 19:30 6,6 C 90 % 1018,1 hPa 0,0 mm 0,0 km/h (0 Bft) O 90 0 min 0 UV-I 0 W/m 1,6 km/h (1 Bft)
07.11.2011 19:40 6,5 C 90 % 1018,0 hPa 0,0 mm 0,0 km/h (0 Bft) O 90 0 min 0 UV-I 0 W/m 1,6 km/h (1 Bft)
07.11.2011 19:50 6,3 C 90 % 1018,0 hPa 0,0 mm 0,0 km/h (0 Bft) O 90 0 min 0 UV-I 0 W/m 1,6 km/h (1 Bft)
07.11.2011 20:00 6,2 C 91 % 1018,0 hPa 0,0 mm 0,0 km/h (0 Bft) O 90 0 min 0 UV-I 0 W/m 4,8 km/h (1 Bft)
07.11.2011 20:10 6,3 C 91 % 1018,0 hPa 0,0 mm 0,0 km/h (0 Bft) O 90 0 min 0 UV-I 0 W/m 6,4 km/h (2 Bft)
07.11.2011 20:20 6,3 C 91 % 1018,1 hPa 0,0 mm 0,0 km/h (0 Bft) O 90 0 min 0 UV-I 0 W/m 3,2 km/h (1 Bft)
07.11.2011 20:30 6,3 C 91 % 1018,2 hPa 0,0 mm 0,0 km/h (0 Bft) O 90 0 min 0 UV-I 0 W/m 4,8 km/h (1 Bft)
07.11.2011 20:40 6,4 C 91 % 1018,1 hPa 0,0 mm 0,0 km/h (0 Bft) O 90 0 min 0 UV-I 0 W/m 6,4 km/h (2 Bft)
07.11.2011 20:50 6,4 C 91 % 1018,0 hPa 0,0 mm 0,0 km/h (0 Bft) O 90 0 min 0 UV-I 0 W/m 4,8 km/h (1 Bft)
07.11.2011 21:00 6,3 C 91 % 1018,3 hPa 0,0 mm 0,0 km/h (0 Bft) O 90 0 min 0 UV-I 0 W/m 3,2 km/h (1 Bft)
07.11.2011 21:10 6,2 C 91 % 1018,4 hPa 0,0 mm 0,0 km/h (0 Bft) O 90 0 min 0 UV-I 0 W/m 3,2 km/h (1 Bft)
07.11.2011 21:20 6,1 C 91 % 1018,3 hPa 0,0 mm 0,0 km/h (0 Bft) O 90 0 min 0 UV-I 0 W/m 3,2 km/h (1 Bft)
07.11.2011 21:30 6,1 C 91 % 1018,4 hPa 0,0 mm 0,0 km/h (0 Bft) O 90 0 min 0 UV-I 0 W/m 1,6 km/h (1 Bft)
07.11.2011 21:40 6,1 C 91 % 1018,0 hPa 0,0 mm 0,0 km/h (0 Bft) O 90 0 min 0 UV-I 0 W/m 1,6 km/h (1 Bft)
07.11.2011 21:50 5,9 C 91 % 1018,2 hPa 0,0 mm 0,0 km/h (0 Bft) N 0 0 min 0 UV-I 0 W/m 0,0 km/h (0 Bft)
07.11.2011 22:00 5,8 C 91 % 1018,1 hPa 0,0 mm 0,0 km/h (0 Bft) O 90 0 min 0 UV-I 0 W/m 3,2 km/h (1 Bft)
07.11.2011 22:10 5,7 C 91 % 1018,1 hPa 0,0 mm 0,0 km/h (0 Bft) O 90 0 min 0 UV-I 0 W/m 3,2 km/h (1 Bft)
07.11.2011 22:20 5,7 C 92 % 1018,2 hPa 0,0 mm 0,0 km/h (0 Bft) O 90 0 min 0 UV-I 0 W/m 4,8 km/h (1 Bft)
07.11.2011 22:30 6,0 C 92 % 1018,2 hPa 0,0 mm 0,0 km/h (0 Bft) O 90 0 min 0 UV-I 0 W/m 3,2 km/h (1 Bft)
07.11.2011 22:40 6,1 C 91 % 1018,2 hPa 0,0 mm 0,0 km/h (0 Bft) O 90 0 min 0 UV-I 0 W/m 1,6 km/h (1 Bft)
07.11.2011 22:50 5,8 C 91 % 1018,3 hPa 0,0 mm 0,0 km/h (0 Bft) O 90 0 min 0 UV-I 0 W/m 4,8 km/h (1 Bft)
07.11.2011 23:00 5,6 C 91 % 1018,2 hPa 0,0 mm 0,0 km/h (0 Bft) O 90 0 min 0 UV-I 0 W/m 3,2 km/h (1 Bft)
07.11.2011 23:10 5,7 C 92 % 1018,3 hPa 0,0 mm 0,0 km/h (0 Bft) N 0 0 min 0 UV-I 0 W/m 0,0 km/h (0 Bft)
07.11.2011 23:20 5,7 C 91 % 1018,2 hPa 0,0 mm 0,0 km/h (0 Bft) N 0 0 min 0 UV-I 0 W/m 0,0 km/h (0 Bft)
07.11.2011 23:30 5,4 C 92 % 1018,3 hPa 0,0 mm 0,0 km/h (0 Bft) N 0 0 min 0 UV-I 0 W/m 0,0 km/h (0 Bft)
07.11.2011 23:40 5,3 C 91 % 1018,3 hPa 0,0 mm 0,0 km/h (0 Bft) N 0 0 min 0 UV-I 0 W/m 0,0 km/h (0 Bft)
07.11.2011 23:50 5,1 C 91 % 1018,4 hPa 0,0 mm 0,0 km/h (0 Bft) N 0 0 min 0 UV-I 0 W/m 0,0 km/h (0 Bft)
_ Min-Zeit 23:50 15:10 00:00 - 00:10 - - - - - 21:50
Minimum _ 4,9 C 85 % 1017,7 hPa - 0,0 km/h (0 Bft) - - - - - 0,0 km/h (0 Bft)
_ Max-Zeit 14:10 05:00 11:20 00:00 08:30 - - 00:00 12:00 12:40 13:00
Maximum _ 9,2 C 93 % 1019,2 hPa 0,0 mm 4,8 km/h
NO (1 Bft)
- - 0 min 1 UV-I 72 W/m 17,7 km/h
N-NO (3 Bft)
Durchschnitt _ 7,5 C 90 % 1018,3 hPa #0,0 mm 1,5 km/h (1 Bft) N-NO - #0 min. 1 UV-I 43 W/m 7,0 km/h (2 Bft)